Weather in Munster

Germany     51°57′49″N   7°37′52″E
temp.,
°C
wind,
m/s
gust,
m/s
humid.,
%
clouds,
%
prec.,
mm/h
press.,
hPa
HPBL,
m
12 april, mon
mon1223:00+2nw3880100 0.0 1019401
02:00+1wnw3682100 0.0 1021226
05:000w2482100 0.0 1023104
08:00+1w37799 0.0 1024275
11:00+6wnw455774 0.1 10251487
14:00+8w5644100 0.8 10262041
17:00+8wnw564681 0.1 10261766
20:00+5wnw36599 0.1 1027302
13 april, tue
tue1323:00+2wnw35746 0.0 1029147
02:00+1w35815 0.0 1030110
05:000w24885 0.0 103085
08:00+2w35820 0.0 1032196
11:00+7nw45585 0.2 10321441
14:00+9nw463799 0.3 10312479
17:00+9nw664091 0.0 10312156
20:00+6nnw48578 0.0 1031368
14 april, wed
wed1423:00+3nnw356822 0.0 1032108
02:00+1nw11795 0.0 103228
05:000wnw228450 0.0 103123
08:00+2nw237859 0.0 1032157
11:00+6nw335392 0.0 10311448
14:00+8nw3346100 0.1 10291727
17:00+8nnw455494 1.2 10281430
20:00+5n4864100 1.6 1028335
15 april, thu
thu1523:00+3n3676100 0.0 1029169
02:00+2n2383100 0.0 102974
05:00+1n2284100 0.0 102944
08:00+2nne238361 0.0 1029158
11:00+6ne346031 0.0 10291211
14:00+9ene564290 0.3 10282213
17:00+9ene564596 0.3 10271736
20:00+6ne486220 0.5 1027279
16 april, fri
fri1623:00+4nne487996 0.0 1028203
02:00+3ne3678100 0.0 1028165
05:00+2nne367297 0.0 1028168
08:00+3ne367696 0.0 1028231
11:00+7ne364872 0.0 10281361
14:00+10nne464294 0.0 10261912
17:00+10ne574587 0.0 10251757
20:00+8ne4854100 0.0 1026622